Regional Weather Roundup
Issued by NWS Sioux Falls, SD

Home | Current Version | Previous Version | Text Only | Print | Product List | Glossary On
Versions: 1 2 3 4 5 6 7 8 9 10 11 12 13 14 15 16 17 18 19 20 21 22 23 24 25 26 27 28 29 30 31 32 33 34 35 36 37 38 39 40 41 42 43 44 45 46 47 48 49 50
625
ASUS43 KFSD 251110
RWRFSD

WEATHER ROUNDUP FOR SE SOUTH DAKOTA/SW MINNESOTA/NW IOWA
NATIONAL WEATHER SERVICE SIOUX FALLS SD
600 AM CDT SUN JUN 25 2017

NOTE: "FAIR" INDICATES FEW OR NO CLOUDS BELOW 12,000 FEET WITH NO
SIGNIFICANT WEATHER AND OR OBSTRUCTIONS TO VISIBILITY.


SDZ038>040-050-052>070-251200-
SOUTHEAST SOUTH DAKOTA

CITY           SKY/WX    TMP DP  RH WIND       PRES   REMARKS
BROOKINGS      CLOUDY    48  45  89 NW8       30.26R
CHAMBERLAIN    CLEAR     46  43  92 W7        30.34R
HURON          CLEAR     45  42  89 W10       30.30R
MADISON        FAIR      45  45 100 NW7       30.27R
MITCHELL       NOT AVBL
SIOUX FALLS    PTCLDY    47  45  93 W8        30.27R
WINNER         FAIR      44  37  76 SW7       30.35R
YANKTON        CLEAR     48  42  80 W7        30.31R
$$

MNZ071-072-080-081-089-090-097-098-251200-
SOUTHWEST MINNESOTA

CITY           SKY/WX    TMP DP  RH WIND       PRES   REMARKS
FAIRMONT       CLOUDY    53  45  74 NW16G22   30.18R
JACKSON        CLEAR     50  43  76 NW16G24   30.21R
LUVERNE        CLEAR     46  41  81 NW3       30.26R
MARSHALL       CLEAR     48  42  80 NW14      30.22R
MONTEVIDEO     CLEAR     48  43  81 NW7       30.21R
PIPESTONE      CLEAR     48  39  71 NW6       30.25R
REDWOOD FALLS  PTCLDY    51  42  71 NW12G23   30.17R
TRACY          CLEAR     49  44  81 NW8       30.22R
WINDOM         PTCLDY    50  43  76 NW13G18   30.20R
WORTHINGTON    CLEAR     47  44  90 W9        30.24R
$$

IAZ001>003-012>014-020>022-031-032-NEZ013-014-SDZ071-251200-
NORTHWEST IOWA

CITY           SKY/WX    TMP DP  RH WIND       PRES   REMARKS
CHEROKEE       CLOUDY    49  45  84 W7        30.25S
DENISON        CLEAR     46  41  81 W3        30.28R
ESTHERVILLE    MOCLDY    50  47  89 NW12      30.20R
LE MARS        CLEAR     48  43  81 NW6       30.28R
ORANGE CITY    CLEAR     46  45  93 NW7       30.27R
SHELDON        CLOUDY    50  45  81 NW12G17   30.24R
SIOUX CITY     CLEAR     48  42  80 NW6       30.29R
SPENCER        CLEAR     49  45  86 W12       30.23R
STORM LAKE     PTCLDY    46  43  87 W9        30.25R
$$

ABBREVIATIONS USED IN REMARKS
   TC - TEMPERATURE IN CELSIUS
  WCI - WIND CHILL INDEX
   HX - HEAT INDEX
  VSB - VISIBILITY





USA.gov is the U.S. government's official web portal to all federal, state and local government web resources and services.